Wind_Speed
54 54 54 55 55 55 56 56 57 56 54 53 53 53 53 53 53 53 53 54 54 54 53 53 54 54 53 53 53 52 51 51 51 50 50 50 50 50
54 54 54 54 55 55 56 56 57 57 55 53 52 53 53 53 52 53 53 53 54 53 54 54 54 55 54 53 52 52 52 52 52 52 52 51 51 50
53 53 53 54 54 54 55 55 56 56 55 53 52 52 53 53 52 52 53 53 54 54 54 54 53 53 53 52 52 52 52 53 53 53 53 52 51 50
52 53 54 54 54 54 54 54 55 55 55 53 52 53 53 53 53 53 53 54 54 54 54 53 53 53 53 53 53 53 53 54 54 53 53 51 50 50
52 52 53 53 53 53 53 53 54 54 54 54 53 53 53 53 54 54 54 55 55 55 54 53 53 52 51 51 51 51 52 52 52 51 50 50 49 49
51 51 52 53 52 52 52 52 52 53 53 53 53 53 52 52 54 54 53 53 52 53 53 52 51 50 49 49 49 49 49 50 50 48 47 48 48 47
51 50 51 51 52 52 52 52 51 51 52 52 52 52 52 51 51 51 51 50 50 50 49 49 49 49 48 47 46 47 47 47 47 46 46 46 45 46
50 50 50 50 50 50 50 50 50 50 50 50 50 50 50 49 49 49 48 48 48 48 48 48 47 46 46 46 46 45 44 44 45 44 44 44 44 45
49 49 49 48 48 49 49 49 50 49 49 48 48 48 48 47 46 45 45 46 45 45 46 45 45 44 43 44 44 43 41 41 42 42 42 42 42 42
50 49 48 48 48 48 48 49 49 48 48 47 47 46 45 45 43 43 43 43 43 43 43 42 41 40 39 39 40 39 39 40 39 39 40 40 40 40
48 48 48 47 47 48 48 47 47 46 46 45 44 43 42 42 41 41 40 41 40 40 40 39 37 38 38 38 37 36 37 39 39 39 39 38 39 39
47 47 47 47 47 46 45 45 44 42 42 41 41 41 40 40 39 39 38 38 38 36 35 35 35 36 36 36 36 35 36 37 39 39 39 38 38 38
46 46 46 45 44 43 42 41 39 39 38 38 38 38 39 39 38 37 37 36 36 34 34 34 33 33 34 34 35 34 35 36 37 38 39 39 38 37
44 44 44 42 41 39 38 38 37 36 37 37 36 36 36 36 35 35 35 35 33 32 32 32 31 31 32 33 34 34 34 35 36 36 36 38 37 37
42 41 40 39 37 36 36 35 34 34 34 34 34 34 34 34 34 34 34 33 33 33 32 32 31 30 31 32 33 32 32 32 33 33 34 35 35 35
38 36 36 34 33 33 33 33 32 32 32 32 32 32 32 32 32 31 31 32 32 31 31 31 31 30 30 30 31 32 31 31 31 32 32 31 32 33
33 31 30 30 30 30 30 30 30 30 31 30 30 30 30 29 29 29 29 29 29 29 30 30 30 29 29 29 30 30 29 30 30 30 30 30 30 30
29 28 27 26 27 28 28 29 29 30 29 28 28 28 27 27 27 27 27 28 29 29 29 29 29 29 29 29 29 29 28 28 28 28 29 28 29 29
26 25 24 23 24 25 26 27 27 27 26 25 25 25 24 24 24 25 25 26 27 28 28 28 28 27 27 27 27 28 27 27 27 27 27 27 27 27
23 22 21 21 21 22 23 23 24 24 24 24 24 23 22 23 23 23 24 24 25 26 25 25 25 25 25 25 26 26 27 27 27 27 26 26 26 26
20 19 19 19 20 20 20 20 20 20 21 21 22 22 22 22 22 22 23 23 23 23 23 23 24 24 24 24 24 25 25 25 25 24 25 25 25 25
18 18 18 18 18 18 18 18 18 18 18 19 19 20 20 20 21 21 21 22 21 21 22 23 23 24 24 23 23 23 22 23 23 23 23 23 22 21
17 17 17 17 17 17 18 17 17 16 17 17 18 18 19 19 20 20 20 20 20 21 21 21 21 21 21 21 20 20 20 21 21 22 22 21 20 20
Wind_Direction
275 275 274 273 273 274 274 273 272 271 270 270 269 268 268 269 269 270 269 268 268 267 265 265 265 265 264 265 265 265 265 265 265 265 267 267 267 267
275 275 274 273 274 274 274 273 272 271 270 270 269 268 267 269 270 269 269 268 268 268 266 266 265 265 266 265 264 263 263 263 264 265 267 267 267 268
276 276 275 274 274 274 274 273 272 271 271 270 269 269 268 269 269 268 268 269 268 267 267 267 266 266 265 265 263 263 262 262 264 266 267 267 267 267
277 277 277 275 274 274 274 273 272 272 271 270 268 268 268 268 268 268 269 268 268 267 268 267 266 266 265 264 263 263 262 263 264 265 266 266 267 267
280 279 278 276 275 274 274 274 273 272 271 270 269 268 269 269 268 269 269 269 268 267 266 266 266 264 263 263 263 262 262 262 263 264 264 265 266 267
281 280 279 277 276 275 275 275 273 272 272 271 270 268 270 270 270 268 268 268 267 266 265 265 264 263 263 263 263 263 263 263 263 263 265 266 266 266
281 281 280 279 277 277 276 275 274 273 272 271 271 270 270 271 270 268 267 266 266 266 265 265 264 263 263 262 261 263 262 262 261 263 265 266 266 267
281 281 281 280 278 277 277 276 276 275 273 272 271 271 270 269 269 268 267 265 265 265 266 265 263 263 262 262 260 261 261 261 262 264 265 265 266 267
282 281 281 280 279 278 277 276 276 275 274 273 271 271 269 269 268 267 266 266 266 266 266 264 263 263 262 261 259 260 259 261 264 264 264 265 265 264
282 281 280 279 279 278 278 277 276 275 274 272 271 269 268 267 266 266 265 264 265 265 265 264 263 263 261 260 259 261 262 261 263 264 263 263 264 264
282 281 280 279 279 279 278 277 276 274 272 271 269 267 266 266 266 266 265 264 263 264 264 265 263 263 261 259 259 261 262 261 263 263 262 262 263 264
282 280 279 278 278 277 277 276 275 273 271 270 269 266 265 266 266 266 266 265 264 263 263 263 262 261 259 258 258 259 260 262 264 264 262 260 261 264
281 280 279 278 278 276 275 274 273 272 269 268 267 266 266 266 266 265 265 264 263 262 261 261 261 262 261 258 257 258 261 264 264 263 261 261 261 263
281 280 279 278 277 275 274 272 271 269 268 267 265 265 266 266 266 265 264 262 262 262 261 260 261 261 260 258 258 259 263 264 265 265 263 264 265 265
281 280 280 278 275 274 273 272 271 269 268 267 265 265 266 265 264 263 261 261 260 262 261 259 260 260 260 260 260 261 264 265 266 267 266 266 266 266
283 282 280 277 274 272 270 269 270 269 268 267 266 264 264 263 263 261 259 259 258 259 259 259 258 259 260 260 261 263 265 264 265 267 268 267 265 265
284 283 281 277 273 271 268 268 269 269 269 267 265 262 261 261 261 260 258 257 256 258 259 259 257 259 260 260 261 262 263 263 264 266 267 267 266 268
285 283 281 279 276 272 269 268 268 268 269 268 265 259 258 259 260 259 259 258 256 257 259 258 258 259 260 260 261 263 263 265 266 266 268 269 269 269
284 284 282 279 277 274 271 269 268 268 267 264 260 258 258 259 259 258 258 258 257 258 258 258 257 258 260 260 262 263 263 265 267 269 270 270 270 270
282 282 281 279 279 278 275 271 269 266 264 260 258 256 256 257 257 258 259 259 259 259 258 256 256 258 260 260 260 261 264 266 267 270 272 273 272 272
280 280 280 280 280 279 276 273 270 266 263 260 257 254 254 255 256 257 258 259 258 257 256 257 258 259 259 259 259 260 264 266 267 269 272 274 274 273
277 279 280 280 280 279 278 277 274 270 265 261 255 253 255 256 257 257 257 256 256 256 257 257 259 259 259 259 260 262 264 265 266 270 272 274 274 272
278 279 281 280 278 279 280 278 273 269 265 260 256 256 257 257 256 255 254 255 255 256 257 259 258 257 257 257 260 262 263 264 266 270 273 274 273 272
Height
5623 5621 5620 5619 5618 5617 5616 5615 5615 5616 5619 5619 5618 5617 5616 5615 5614 5613 5613 5613 5613 5613 5614 5615 5616 5617 5618 5619 5620 5621 5622 5623 5623 5624 5625 5625 5626 5626
5608 5607 5605 5604 5603 5601 5600 5599 5598 5598 5601 5604 5602 5601 5601 5601 5599 5599 5598 5599 5599 5599 5599 5600 5601 5602 5603 5604 5605 5606 5607 5608 5608 5609 5610 5611 5611 5612
5593 5591 5590 5589 5587 5586 5585 5584 5583 5582 5584 5587 5587 5586 5585 5585 5585 5584 5584 5584 5584 5584 5584 5585 5585 5586 5587 5588 5590 5591 5592 5593 5594 5595 5595 5596 5596 5598
5578 5577 5575 5573 5572 5571 5570 5568 5567 5567 5567 5570 5571 5571 5570 5570 5569 5569 5569 5569 5569 5569 5568 5569 5570 5571 5572 5573 5574 5575 5577 5578 5579 5580 5581 5582 5582 5582
5564 5562 5560 5559 5557 5556 5554 5553 5552 5551 5551 5552 5554 5555 5555 5554 5554 5554 5553 5553 5553 5553 5553 5554 5554 5555 5556 5557 5559 5560 5561 5563 5564 5564 5565 5567 5568 5568
5550 5548 5546 5544 5543 5541 5540 5538 5537 5536 5536 5536 5537 5539 5539 5539 5538 5538 5538 5538 5538 5537 5538 5539 5540 5541 5541 5543 5545 5546 5547 5547 5549 5550 5551 5552 5553 5553
5536 5533 5531 5529 5527 5526 5525 5524 5522 5521 5521 5521 5522 5523 5523 5523 5523 5522 5522 5523 5524 5523 5523 5524 5525 5527 5528 5529 5530 5531 5532 5533 5535 5536 5537 5538 5538 5538
5522 5519 5517 5515 5513 5511 5510 5509 5508 5507 5506 5506 5507 5507 5508 5508 5507 5507 5507 5508 5510 5512 5510 5511 5512 5513 5514 5515 5516 5517 5518 5520 5521 5522 5523 5524 5525 5525
5507 5505 5503 5501 5499 5497 5496 5494 5493 5492 5491 5491 5492 5492 5493 5494 5493 5493 5494 5494 5496 5497 5496 5498 5499 5500 5501 5502 5503 5504 5506 5507 5508 5509 5510 5511 5512 5512
5493 5491 5489 5487 5485 5483 5481 5480 5479 5478 5477 5477 5478 5478 5479 5479 5479 5480 5481 5482 5483 5483 5483 5485 5486 5488 5489 5490 5491 5493 5494 5495 5496 5497 5498 5499 5500 5501
5479 5476 5474 5472 5471 5468 5467 5466 5466 5465 5464 5464 5464 5465 5465 5466 5466 5467 5469 5470 5471 5473 5472 5473 5475 5476 5478 5479 5481 5482 5483 5484 5485 5486 5487 5488 5488 5489
5465 5463 5460 5458 5456 5454 5452 5452 5452 5452 5452 5452 5452 5452 5453 5454 5455 5456 5457 5458 5460 5461 5462 5462 5464 5465 5467 5469 5470 5472 5472 5473 5474 5474 5475 5476 5477 5477
5451 5449 5447 5444 5442 5441 5440 5439 5439 5439 5439 5440 5440 5441 5442 5443 5443 5444 5446 5447 5448 5450 5451 5452 5453 5454 5456 5459 5460 5461 5462 5463 5463 5463 5464 5465 5465 5466
5437 5436 5434 5431 5430 5428 5428 5427 5427 5427 5427 5428 5429 5430 5431 5432 5433 5434 5435 5436 5438 5439 5440 5442 5443 5445 5446 5448 5450 5451 5452 5452 5453 5453 5453 5454 5454 5455
5425 5423 5421 5419 5418 5417 5417 5416 5416 5416 5417 5417 5418 5420 5421 5422 5423 5424 5425 5426 5428 5429 5430 5432 5434 5435 5437 5438 5440 5441 5442 5443 5443 5443 5443 5443 5444 5444
5413 5411 5410 5408 5407 5407 5407 5406 5406 5407 5407 5408 5409 5410 5411 5412 5413 5414 5415 5417 5419 5420 5421 5423 5424 5426 5427 5429 5430 5432 5432 5433 5433 5433 5433 5433 5434 5433
5403 5402 5400 5399 5398 5397 5397 5397 5397 5398 5398 5399 5399 5401 5402 5403 5404 5405 5407 5408 5410 5412 5413 5414 5415 5417 5418 5419 5420 5422 5423 5423 5424 5424 5424 5424 5424 5423
5394 5393 5392 5390 5389 5389 5389 5389 5389 5389 5390 5390 5391 5392 5393 5395 5396 5397 5398 5400 5401 5403 5404 5406 5407 5408 5410 5411 5412 5413 5414 5414 5414 5415 5414 5415 5415 5414
5386 5385 5384 5383 5382 5381 5381 5381 5381 5381 5382 5382 5383 5385 5386 5387 5388 5389 5390 5392 5393 5394 5396 5397 5399 5400 5402 5403 5404 5404 5405 5406 5406 5406 5406 5406 5406 5405
5379 5378 5377 5376 5375 5374 5374 5374 5374 5374 5374 5375 5376 5378 5379 5380 5381 5382 5383 5384 5385 5387 5388 5389 5391 5392 5394 5395 5396 5397 5397 5397 5397 5397 5397 5397 5397 5396
5373 5373 5372 5371 5370 5368 5368 5367 5367 5367 5368 5368 5369 5370 5372 5373 5374 5375 5376 5377 5378 5379 5381 5382 5384 5385 5386 5387 5388 5389 5389 5389 5389 5389 5389 5389 5388 5388
5368 5367 5366 5365 5364 5363 5362 5362 5362 5362 5362 5362 5363 5364 5365 5366 5367 5368 5369 5370 5372 5373 5374 5375 5376 5377 5378 5379 5380 5381 5382 5382 5382 5381 5381 5381 5380 5380
5362 5362 5361 5360 5359 5358 5357 5357 5357 5356 5357 5357 5358 5358 5359 5360 5361 5362 5363 5364 5365 5366 5367 5368 5369 5370 5371 5372 5373 5374 5374 5375 5375 5374 5374 5373 5372 5372